Location: Rumah Long Bangan
(2.8362°N, 113.7519°E)
Time: 04:56:44
(UTC+00:00)

CZ-4B R/B - Pass Details

Date: 24 October 2021
Orbit: 496 x 644 km, 97.8° (Epoch: 28 November)

Event Time Altitude Azimuth Distance (km) Brightness Sun altitude
Rises 21:13:30 0° 9° (N) 2,654 7.3 -14.2°
Reaches altitude 10° 21:15:34 10° 8° (N) 1,788 6.4 -13.7°
Maximum altitude 21:19:25 79° 282° (WNW) 568 3.7 -12.7°
Drops below altitude 10° 21:23:29 10° 195° (SSW) 1,883 6.5 -11.7°
Sets 21:25:42 0° 193° (SSW) 2,809 7.4 -11.2°
